Weather History for Newburgh, NY

Change the Weather History Date:

Thursday, June 13, 2013

  Actual Average Record
Temperature  
Mean Temperature 56 °F -  
Max Temperature 59 °F 73 °F 91 °F (1973)
Min Temperature 53 °F 55 °F 38 °F (1980)
Degree Days  
Heating Degree Days 9    
Growing Degree Days 6 (Base 50)    
Moisture  
Dew Point 56 °F    
Average Humidity 96    
Maximum Humidity 100    
Minimum Humidity 88    
Precipitation  
Precipitation 0.00 in - - ()
Sea Level Pressure  
Sea Level Pressure 29.69 in    
Wind  
Wind Speed 6 mph (East)    
Max Wind Speed 17 mph    
Max Gust Speed 28 mph    
Visibility 6 miles    
Events Rain    
Averages and records for this station are not official NWS values.
T = Trace of Precipitation, MM = Missing Value Source: NWS Daily Summary

Daily Weather History Graph

Daily Weather History Graph

Search for Another Location

Airport:

Trip Planner

Search our weather history database for the weather conditions in past years. The results will help you decide how hot, cold, wet, or windy it might be!

Date:

Astronomy

Jun. 13, 2013 Rise Set
Actual Time 5:21 AM EDT 8:31 PM EDT
Civil Twilight 4:48 AM EDT 9:05 PM EDT
Nautical Twilight 4:04 AM EDT 9:48 PM EDT
Astronomical Twilight 3:12 AM EDT 10:40 PM EDT
Moon 9:58 AM EDT (6/13) 11:33 PM EDT (6/13)
Length of Visible Light 16h 17m
Length of Day
15h 09m
Waxing Crescent, 21% of the Moon is Illuminated
Jun 13
Waxing Crescent
Jun 16
First Quarter
Jun 23
Full
Jun 30
Last Quarter
Jul 8
New

Hourly Weather History & Observations

Time (EDT) Temp. Dew Point Humidity Pressure Visibility Wind Dir Wind Speed Gust Speed Precip Events Conditions
12:45 AM 55.4 °F 53.6 °F 94% 29.86 in 10.0 mi Calm Calm - N/A   Clear
1:45 AM 55.4 °F 53.6 °F 94% 29.83 in 10.0 mi Calm Calm - N/A   Clear
2:45 AM 53.6 °F 51.8 °F 94% 29.84 in 10.0 mi Calm Calm - N/A   Clear
3:45 AM 57.2 °F 53.6 °F 88% 29.84 in 10.0 mi Calm Calm - N/A   Clear
5:45 AM 57.2 °F 55.4 °F 94% 29.82 in 10.0 mi Calm Calm - N/A   Overcast
6:45 AM 59.0 °F 57.2 °F 94% 29.80 in 10.0 mi Calm Calm - N/A   Overcast
7:45 AM 59.0 °F 57.2 °F 94% 29.77 in 7.0 mi ESE 4.6 mph - N/A Rain Light Rain
8:45 AM 59.0 °F 57.2 °F 94% 29.76 in 2.0 mi ESE 5.8 mph - N/A Rain Light Rain
9:45 AM 59.0 °F 59.0 °F 100% 29.74 in 3.0 mi East 11.5 mph - N/A Rain Light Rain
10:45 AM 59.0 °F 59.0 °F 100% 29.72 in 3.0 mi East 11.5 mph - N/A Rain Light Rain
11:50 AM 59.0 °F 59.0 °F 100% 29.68 in 3.0 mi ESE 11.5 mph - N/A Rain Light Rain
12:50 PM 59.0 °F 57.2 °F 94% 29.64 in 10.0 mi ESE 11.5 mph - N/A   Overcast
1:45 PM 59.0 °F 55.4 °F 88% 29.64 in 10.0 mi ESE 16.1 mph 25.3 mph N/A   Overcast
2:45 PM 59.0 °F 57.2 °F 94% 29.62 in 10.0 mi SE 16.1 mph 19.6 mph N/A   Overcast
3:45 PM 59.0 °F 57.2 °F 94% 29.61 in 2.0 mi ESE 12.7 mph 20.7 mph N/A Rain Light Rain
4:45 PM 57.2 °F 57.2 °F 100% 29.59 in 2.0 mi East 11.5 mph - N/A Rain Light Rain
5:05 PM 57.2 °F 57.2 °F 100% 29.59 in 2.0 mi East 8.1 mph - N/A Rain Light Rain
5:45 PM 57.2 °F 57.2 °F 100% 29.58 in 2.0 mi NE 11.5 mph - N/A Rain Light Rain
6:45 PM 57.2 °F 55.4 °F 94% 29.58 in 2.0 mi NE 11.5 mph 23.0 mph N/A Rain Light Rain
7:45 PM 55.4 °F 55.4 °F 100% 29.58 in 2.0 mi NE 16.1 mph 23.0 mph N/A Rain Rain
8:45 PM 55.4 °F 55.4 °F 100% 29.60 in 3.0 mi NE 15.0 mph - N/A   Overcast
9:45 PM 55.4 °F 53.6 °F 94% 29.60 in 3.0 mi ENE 11.5 mph 23.0 mph N/A Rain Light Rain
10:45 PM 53.6 °F 53.6 °F 100% 29.61 in 3.0 mi NE 16.1 mph 27.6 mph N/A Rain Light Rain
11:45 PM 53.6 °F 51.8 °F 94% 29.61 in 4.0 mi NE 17.3 mph - N/A Rain Light Rain